| time (UTC) | temp C | wind direction | speed KPH | gust KPH | rain 1hr cm | rain 24hr cm | rain mn cm | humidity % | barometer mb |
| 20260506132509 | 11 | 360 | 12.9 | 17.7 | 0.00 | 0.00 | 0.00 | 100 | 1017.5 |
| 20260506132006 | 11 | 337 | 12.9 | 17.7 | 0.00 | 0.00 | 0.00 | 100 | 1017.5 |
| 20260506131508 | 10 | 337 | 11.3 | 17.7 | 0.00 | 0.00 | 0.00 | 100 | 1017.1 |
| 20260506131008 | 10 | 360 | 12.9 | 19.3 | 0.00 | 0.00 | 0.00 | 100 | 1017.1 |
| 20260506130504 | 10 | 360 | 16.1 | 22.5 | 0.00 | 0.00 | 0.00 | 100 | 1017.1 |
| 20260506130007 | 10 | 22 | 19.3 | 24.1 | 0.00 | 0.00 | 0.00 | 100 | 1017.1 |
| 20260506125503 | 10 | 337 | 16.1 | 22.5 | 0.00 | 0.00 | 0.00 | 100 | 1017.5 |
| 20260506125007 | 10 | 360 | 14.5 | 20.9 | 0.00 | 0.00 | 0.00 | 100 | 1017.5 |
| 20260506124504 | 10 | 337 | 14.5 | 22.5 | 0.00 | 0.00 | 0.00 | 100 | 1017.5 |
| 20260506124007 | 10 | 337 | 14.5 | 19.3 | 0.00 | 0.00 | 0.00 | 100 | 1017.5 |
| 20260506123504 | 10 | 337 | 12.9 | 16.1 | 0.00 | 0.00 | 0.00 | 100 | 1017.1 |
| 20260506123007 | 10 | 337 | 16.1 | 22.5 | 0.00 | 0.00 | 0.00 | 100 | 1017.1 |
| 20260506122507 | 10 | 337 | 11.3 | 16.1 | 0.00 | 0.00 | 0.00 | 100 | 1017.1 |
| 20260506122004 | 10 | 337 | 17.7 | 22.5 | 0.00 | 0.00 | 0.00 | 100 | 1017.1 |
| 20260506121527 | 10 | 337 | 16.1 | 19.3 | 0.00 | 0.00 | 0.00 | 100 | 1017.1 |
| 20260506121004 | 10 | 337 | 17.7 | 24.1 | 0.00 | 0.00 | 0.00 | 100 | 1017.1 |
| 20260506120506 | 10 | 337 | 17.7 | 24.1 | 0.00 | 0.00 | 0.00 | 100 | 1017.1 |
| 20260506120004 | 10 | 337 | 16.1 | 20.9 | 0.00 | 0.00 | 0.00 | 100 | 1017.1 |
| 20260506115506 | 10 | 337 | 17.7 | 22.5 | 0.00 | 0.00 | 0.00 | 100 | 1017.1 |
| 20260506115004 | 10 | 315 | 16.1 | 22.5 | 0.00 | 0.00 | 0.00 | 100 | 1017.1 |
| 20260506114506 | 10 | 360 | 9.7 | 16.1 | 0.00 | 0.00 | 0.00 | 100 | 1016.8 |
| 20260506114003 | 10 | 337 | 16.1 | 19.3 | 0.00 | 0.00 | 0.00 | 100 | 1016.8 |
| 20260506113506 | 10 | 337 | 16.1 | 19.3 | 0.00 | 0.00 | 0.00 | 100 | 1016.5 |
| 20260506113003 | 10 | 337 | 16.1 | 22.5 | 0.00 | 0.00 | 0.00 | 100 | 1016.5 |
| 20260506112507 | 10 | 337 | 20.9 | 30.6 | 0.00 | 0.00 | 0.00 | 100 | 1015.8 |
| 20260506112004 | 10 | 315 | 14.5 | 20.9 | 0.00 | 0.00 | 0.00 | 100 | 1015.8 |
| 20260506111507 | 10 | 337 | 19.3 | 30.6 | 0.00 | 0.00 | 0.00 | 100 | 1015.8 |
| 20260506111004 | 11 | 360 | 14.5 | 24.1 | 0.00 | 0.00 | 0.00 | 99 | 1015.8 |
| 20260506110506 | 11 | 337 | 20.9 | 30.6 | 0.00 | 0.00 | 0.00 | 97 | 1015.8 |
| 20260506110004 | 11 | 337 | 17.7 | 25.7 | 0.00 | 0.00 | 0.00 | 94 | 1015.8 |
| 20260506105506 | 11 | 360 | 17.7 | 22.5 | 0.00 | 0.00 | 0.00 | 92 | 1015.1 |
| 20260506105003 | 11 | 337 | 19.3 | 30.6 | 0.00 | 0.00 | 0.00 | 92 | 1015.1 |
| 20260506104507 | 11 | 337 | 17.7 | 25.7 | 0.00 | 0.00 | 0.00 | 90 | 1015.1 |
| 20260506104004 | 11 | 22 | 19.3 | 27.4 | 0.00 | 0.00 | 0.00 | 89 | 1015.1 |
| 20260506103507 | 11 | 337 | 17.7 | 22.5 | 0.00 | 0.00 | 0.00 | 88 | 1015.1 |
| 20260506103004 | 11 | 337 | 20.9 | 30.6 | 0.00 | 0.00 | 0.00 | 87 | 1015.1 |
| 20260506102506 | 11 | 337 | 17.7 | 24.1 | 0.00 | 0.00 | 0.00 | 87 | 1015.1 |
| 20260506102009 | 12 | 337 | 16.1 | 20.9 | 0.00 | 0.00 | 0.00 | 88 | 1015.1 |
| 20260506101506 | 12 | 337 | 17.7 | 25.7 | 0.00 | 0.00 | 0.00 | 87 | 1014.4 |
| 20260506101041 | 12 | 337 | 16.1 | 22.5 | 0.00 | 0.00 | 0.00 | 87 | 1014.4 |
| 20260506100504 | 12 | 360 | 12.9 | 19.3 | 0.00 | 0.00 | 0.00 | 87 | 1014.4 |
| 20260506100008 | 12 | 360 | 14.5 | 27.4 | 0.00 | 0.00 | 0.00 | 86 | 1014.4 |
| 20260506095505 | 12 | 337 | 14.5 | 20.9 | 0.00 | 0.00 | 0.00 | 85 | 1014.4 |
| 20260506095008 | 12 | 360 | 16.1 | 20.9 | 0.00 | 0.00 | 0.00 | 86 | 1014.4 |
| 20260506094504 | 12 | 360 | 16.1 | 22.5 | 0.00 | 0.00 | 0.00 | 86 | 1014.4 |
| 20260506094007 | 12 | 337 | 12.9 | 22.5 | 0.00 | 0.00 | 0.00 | 86 | 1014.4 |
| 20260506093506 | 12 | 315 | 12.9 | 17.7 | 0.00 | 0.00 | 0.00 | 86 | 1014.1 |
| 20260506093007 | 12 | 337 | 16.1 | 22.5 | 0.00 | 0.00 | 0.00 | 86 | 1014.1 |
| 20260506092505 | 12 | 337 | 12.9 | 17.7 | 0.00 | 0.00 | 0.00 | 87 | 1013.8 |
| 20260506092007 | 12 | 360 | 14.5 | 20.9 | 0.00 | 0.00 | 0.00 | 87 | 1013.8 |
| 20260506091505 | 12 | 337 | 11.3 | 14.5 | 0.00 | 0.00 | 0.00 | 88 | 1013.8 |
| 20260506091007 | 12 | 337 | 12.9 | 20.9 | 0.00 | 0.00 | 0.00 | 87 | 1013.8 |
| 20260506090504 | 12 | 337 | 9.7 | 16.1 | 0.00 | 0.00 | 0.00 | 87 | 1013.8 |
| 20260506090005 | 12 | 337 | 14.5 | 20.9 | 0.00 | 0.00 | 0.00 | 86 | 1013.8 |
| 20260506085508 | 12 | 337 | 14.5 | 22.5 | 0.00 | 0.00 | 0.00 | 85 | 1013.4 |
| 20260506085005 | 12 | 22 | 14.5 | 19.3 | 0.00 | 0.00 | 0.00 | 85 | 1013.4 |
| 20260506084507 | 12 | 360 | 14.5 | 20.9 | 0.00 | 0.00 | 0.00 | 85 | 1013.4 |
| 20260506084004 | 12 | 337 | 11.3 | 16.1 | 0.00 | 0.00 | 0.00 | 86 | 1013.4 |
| 20260506083507 | 12 | 337 | 14.5 | 19.3 | 0.00 | 0.00 | 0.00 | 86 | 1013.4 |
| 20260506083005 | 12 | 337 | 11.3 | 20.9 | 0.00 | 0.00 | 0.00 | 87 | 1013.4 |
| 20260506082507 | 12 | 337 | 14.5 | 17.7 | 0.00 | 0.00 | 0.00 | 87 | 1013.4 |
| 20260506082004 | 12 | 360 | 14.5 | 19.3 | 0.00 | 0.00 | 0.00 | 87 | 1013.4 |
| 20260506081508 | 12 | 337 | 19.3 | 24.1 | 0.00 | 0.00 | 0.00 | 86 | 1013.4 |
| 20260506081005 | 12 | 360 | 11.3 | 16.1 | 0.00 | 0.00 | 0.00 | 86 | 1013.4 |
| 20260506080534 | 12 | 337 | 9.7 | 14.5 | 0.00 | 0.00 | 0.00 | 87 | 1013.4 |
| 20260506073503 | 13 | 337 | 11.3 | 14.5 | 0.00 | 0.00 | 0.00 | 89 | 1012.7 |
| 20260506073006 | 13 | 337 | 14.5 | 19.3 | 0.00 | 0.00 | 0.00 | 89 | 1012.7 |
| 20260506072502 | 13 | 22 | 11.3 | 16.1 | 0.00 | 0.00 | 0.00 | 89 | 1012.4 |
| 20260506072005 | 13 | 22 | 14.5 | 17.7 | 0.00 | 0.00 | 0.00 | 90 | 1012.4 |
| 20260506071502 | 13 | 337 | 11.3 | 16.1 | 0.00 | 0.00 | 0.00 | 90 | 1012.4 |
| 20260506071006 | 13 | 22 | 9.7 | 16.1 | 0.00 | 0.00 | 0.00 | 90 | 1012.4 |
| 20260506070503 | 13 | 22 | 16.1 | 20.9 | 0.00 | 0.00 | 0.00 | 90 | 1012.7 |
| 20260506062505 | 13 | 337 | 9.7 | 14.5 | 0.00 | 0.00 | 0.00 | 89 | 1013.1 |
| 20260506062002 | 13 | 337 | 14.5 | 25.7 | 0.00 | 0.00 | 0.00 | 89 | 1013.1 |
| 20260506061505 | 13 | 45 | 12.9 | 16.1 | 0.00 | 0.00 | 0.00 | 89 | 1012.4 |
| 20260506061003 | 13 | 337 | 14.5 | 19.3 | 0.00 | 0.00 | 0.00 | 89 | 1012.4 |
| 20260506060514 | 13 | 360 | 12.9 | 16.1 | 0.00 | 0.00 | 0.00 | 90 | 1012.4 |
| 20260506051005 | 14 | 360 | 17.7 | 22.5 | 0.00 | 0.00 | 0.00 | 93 | 1012.7 |
| 20260506050503 | 14 | 360 | 14.5 | 22.5 | 0.00 | 0.00 | 0.00 | 94 | 1012.4 |
| 20260506045006 | 14 | 22 | 17.7 | 27.4 | 0.00 | 0.00 | 0.00 | 94 | 1012.4 |
| 20260506044503 | 14 | 337 | 16.1 | 19.3 | 0.00 | 0.00 | 0.00 | 94 | 1012.4 |
| 20260506044006 | 14 | 337 | 16.1 | 22.5 | 0.00 | 0.00 | 0.00 | 94 | 1012.4 |
| 20260506043504 | 14 | 337 | 17.7 | 24.1 | 0.00 | 0.00 | 0.00 | 94 | 1012.7 |
| 20260506043006 | 15 | 337 | 14.5 | 22.5 | 0.00 | 0.00 | 0.00 | 95 | 1012.7 |
| 20260506042504 | 15 | 337 | 14.5 | 19.3 | 0.00 | 0.00 | 0.00 | 95 | 1012.4 |
| 20260506042007 | 15 | 337 | 14.5 | 20.9 | 0.00 | 0.00 | 0.00 | 94 | 1012.4 |
| 20260506041504 | 15 | 337 | 16.1 | 20.9 | 0.00 | 0.00 | 0.00 | 95 | 1012.4 |
| 20260506041006 | 15 | 360 | 17.7 | 27.4 | 0.00 | 0.00 | 0.00 | 95 | 1012.4 |
| 20260506040504 | 15 | 337 | 17.7 | 24.1 | 0.00 | 0.00 | 0.00 | 95 | 1012.1 |
| 20260506040005 | 15 | 337 | 16.1 | 25.7 | 0.00 | 0.00 | 0.00 | 95 | 1012.1 |
| 20260506035534 | 15 | 337 | 19.3 | 25.7 | 0.00 | 0.00 | 0.00 | 95 | 1011.7 |
| 20260506035005 | 15 | 337 | 14.5 | 19.3 | 0.00 | 0.00 | 0.00 | 95 | 1011.7 |
| 20260506034508 | 15 | 337 | 19.3 | 27.4 | 0.00 | 0.00 | 0.00 | 95 | 1011.7 |
| 20260506034004 | 15 | 337 | 19.3 | 27.4 | 0.00 | 0.00 | 0.00 | 95 | 1011.7 |
| 20260506033507 | 15 | 337 | 22.5 | 32.2 | 0.00 | 0.00 | 0.00 | 95 | 1011.4 |
| 20260506033005 | 15 | 22 | 14.5 | 22.5 | 0.00 | 0.00 | 0.00 | 95 | 1011.4 |
| 20260506032507 | 15 | 360 | 16.1 | 25.7 | 0.00 | 0.00 | 0.00 | 94 | 1011.0 |
| 20260506032004 | 15 | 337 | 19.3 | 25.7 | 0.00 | 0.00 | 0.00 | 94 | 1011.0 |
| 20260506031508 | 15 | 360 | 19.3 | 27.4 | 0.00 | 0.00 | 0.00 | 94 | 1011.0 |
| 20260506031004 | 16 | 337 | 16.1 | 24.1 | 0.00 | 0.00 | 0.00 | 93 | 1011.0 |
| 20260506030507 | 16 | 337 | 17.7 | 24.1 | 0.00 | 0.00 | 0.00 | 92 | 1011.0 |
| 20260506030004 | 16 | 337 | 20.9 | 29.0 | 0.00 | 0.00 | 0.00 | 93 | 1011.0 |
| 20260506025507 | 16 | 337 | 16.1 | 24.1 | 0.00 | 0.00 | 0.00 | 93 | 1010.7 |
| 20260506025009 | 16 | 337 | 14.5 | 22.5 | 0.00 | 0.00 | 0.00 | 93 | 1010.7 |
| 20260506024506 | 16 | 360 | 14.5 | 17.7 | 0.00 | 0.00 | 0.00 | 93 | 1010.4 |
| 20260506024003 | 16 | 360 | 14.5 | 22.5 | 0.00 | 0.00 | 0.00 | 92 | 1010.4 |
| 20260506023505 | 16 | 315 | 16.1 | 19.3 | 0.00 | 0.00 | 0.00 | 92 | 1010.4 |
| 20260506023003 | 16 | 337 | 17.7 | 20.9 | 0.00 | 0.00 | 0.00 | 92 | 1010.4 |
| 20260506022506 | 16 | 360 | 12.9 | 17.7 | 0.00 | 0.00 | 0.00 | 91 | 1009.7 |
| 20260506022002 | 16 | 22 | 19.3 | 27.4 | 0.00 | 0.00 | 0.00 | 91 | 1009.7 |
| 20260506021505 | 17 | 360 | 17.7 | 27.4 | 0.00 | 0.00 | 0.00 | 90 | 1009.4 |
| 20260506021002 | 17 | 337 | 20.9 | 25.7 | 0.00 | 0.00 | 0.00 | 90 | 1009.4 |
| 20260506020506 | 17 | 337 | 16.1 | 22.5 | 0.00 | 0.00 | 0.00 | 89 | 1008.7 |
| 20260506020003 | 17 | 360 | 17.7 | 22.5 | 0.00 | 0.00 | 0.00 | 90 | 1008.7 |
| 20260506015506 | 17 | 22 | 14.5 | 20.9 | 0.00 | 0.00 | 0.00 | 89 | 1008.7 |
| 20260506015035 | 18 | 337 | 16.1 | 20.9 | 0.00 | 0.00 | 0.00 | 88 | 1008.7 |
| 20260506014506 | 18 | 360 | 16.1 | 27.4 | 0.00 | 0.00 | 0.00 | 88 | 1008.3 |
| 20260506014002 | 18 | 337 | 9.7 | 12.9 | 0.00 | 0.00 | 0.00 | 87 | 1008.3 |
| 20260506013506 | 18 | 337 | 9.7 | 14.5 | 0.00 | 0.00 | 0.00 | 87 | 1008.0 |
| 20260506013002 | 18 | 337 | 12.9 | 17.7 | 0.00 | 0.00 | 0.00 | 86 | 1008.0 |
| 20260506012506 | 18 | 337 | 11.3 | 16.1 | 0.00 | 0.00 | 0.00 | 86 | 1008.0 |
| 20260506012003 | 18 | 360 | 8.0 | 11.3 | 0.00 | 0.00 | 0.00 | 85 | 1008.0 |
| 20260506011505 | 18 | 22 | 8.0 | 11.3 | 0.00 | 0.00 | 0.00 | 85 | 1007.3 |
| 20260506011003 | 18 | 337 | 11.3 | 16.1 | 0.00 | 0.00 | 0.00 | 85 | 1007.3 |
| 20260506010505 | 18 | 337 | 16.1 | 24.1 | 0.00 | 0.00 | 0.00 | 84 | 1006.6 |
| 20260506010002 | 18 | 337 | 17.7 | 25.7 | 0.00 | 0.00 | 0.00 | 83 | 1006.6 |
| 20260506005506 | 18 | 360 | 16.1 | 25.7 | 0.00 | 0.00 | 0.00 | 83 | 1007.0 |
| 20260506005003 | 18 | 337 | 17.7 | 24.1 | 0.00 | 0.00 | 0.00 | 83 | 1007.0 |
| 20260506004505 | 18 | 22 | 16.1 | 22.5 | 0.00 | 0.00 | 0.00 | 82 | 1006.6 |
| 20260506004002 | 18 | 337 | 19.3 | 24.1 | 0.00 | 0.00 | 0.00 | 82 | 1006.6 |
| 20260506003505 | 19 | 337 | 24.1 | 35.4 | 0.00 | 0.00 | 0.00 | 81 | 1006.3 |
| 20260506003008 | 20 | 337 | 17.7 | 22.5 | 0.00 | 0.00 | 0.00 | 82 | 1006.3 |
| 20260506002504 | 20 | 337 | 19.3 | 25.7 | 0.00 | 0.00 | 0.00 | 80 | 1005.6 |
| 20260506002007 | 20 | 337 | 17.7 | 22.5 | 0.00 | 0.00 | 0.00 | 80 | 1005.6 |
| 20260506001505 | 20 | 337 | 16.1 | 20.9 | 0.00 | 0.00 | 0.00 | 79 | 1006.3 |
| 20260506001007 | 20 | 337 | 19.3 | 30.6 | 0.00 | 0.00 | 0.00 | 79 | 1006.3 |
| 20260506000504 | 20 | 337 | 20.9 | 29.0 | 0.00 | 0.00 | 0.00 | 79 | 1006.0 |
| 20260506000007 | 21 | 337 | 16.1 | 24.1 | 0.00 | 0.00 | 0.00 | 79 | 1006.0 |
| 20260505235504 | 21 | 337 | 20.9 | 25.7 | 0.00 | 0.00 | 0.00 | 77 | 1005.6 |
| 20260505235008 | 21 | 360 | 22.5 | 30.6 | 0.00 | 0.00 | 0.00 | 77 | 1005.6 |
| 20260505234531 | 21 | 337 | 19.3 | 24.1 | 0.00 | 0.00 | 0.00 | 76 | 1005.3 |
| 20260505234008 | 21 | 337 | 24.1 | 30.6 | 0.00 | 0.00 | 0.00 | 76 | 1005.3 |
| 20260505233525 | 21 | 337 | 19.3 | 24.1 | 0.00 | 0.00 | 0.00 | 77 | 1004.9 |
| 20260505233005 | 21 | 337 | 20.9 | 29.0 | 0.00 | 0.00 | 0.00 | 75 | 1004.9 |
| 20260505232510 | 21 | 337 | 17.7 | 24.1 | 0.00 | 0.00 | 0.00 | 76 | 1004.9 |
| 20260505232006 | 22 | 337 | 14.5 | 19.3 | 0.00 | 0.00 | 0.00 | 76 | 1004.9 |
| 20260505231508 | 22 | 315 | 17.7 | 27.4 | 0.00 | 0.00 | 0.00 | 73 | 1004.3 |
| 20260505231004 | 22 | 337 | 22.5 | 32.2 | 0.00 | 0.00 | 0.00 | 73 | 1004.3 |
| 20260505230507 | 22 | 337 | 20.9 | 25.7 | 0.00 | 0.00 | 0.00 | 73 | 1004.3 |
| 20260505230004 | 23 | 337 | 22.5 | 29.0 | 0.00 | 0.00 | 0.00 | 71 | 1004.3 |
| 20260505225503 | 23 | 337 | 19.3 | 25.7 | 0.00 | 0.00 | 0.00 | 67 | 1003.9 |
| 20260505225005 | 23 | 337 | 24.1 | 32.2 | 0.00 | 0.00 | 0.00 | 65 | 1003.9 |
| 20260505224503 | 24 | 337 | 25.7 | 32.2 | 0.00 | 0.00 | 0.00 | 66 | 1003.3 |
| 20260505224006 | 24 | 315 | 19.3 | 24.1 | 0.00 | 0.00 | 0.00 | 67 | 1003.3 |
| 20260505223502 | 25 | 315 | 24.1 | 30.6 | 0.00 | 0.00 | 0.00 | 66 | 1002.9 |
| 20260505223006 | 25 | 337 | 19.3 | 24.1 | 0.00 | 0.00 | 0.00 | 66 | 1002.9 |
| 20260505222502 | 25 | 315 | 19.3 | 25.7 | 0.00 | 0.00 | 0.00 | 66 | 1002.2 |
| 20260505222005 | 25 | 315 | 19.3 | 30.6 | 0.00 | 0.00 | 0.00 | 64 | 1002.2 |
| 20260505221503 | 26 | 337 | 22.5 | 30.6 | 0.00 | 0.00 | 0.00 | 62 | 1002.2 |
| 20260505221006 | 26 | 292 | 17.7 | 22.5 | 0.00 | 0.00 | 0.00 | 63 | 1002.2 |
| 20260505220503 | 26 | 337 | 17.7 | 22.5 | 0.00 | 0.00 | 0.00 | 62 | 1001.6 |
| 20260505220006 | 26 | 315 | 17.7 | 22.5 | 0.00 | 0.00 | 0.00 | 62 | 1001.6 |
| 20260505215503 | 27 | 315 | 19.3 | 22.5 | 0.00 | 0.00 | 0.00 | 59 | 1001.6 |
| 20260505215006 | 27 | 315 | 16.1 | 22.5 | 0.00 | 0.00 | 0.00 | 59 | 1001.6 |
| 20260505214503 | 27 | 315 | 20.9 | 29.0 | 0.00 | 0.00 | 0.00 | 56 | 1001.9 |
| 20260505214032 | 26 | 315 | 19.3 | 25.7 | 0.00 | 0.00 | 0.00 | 56 | 1001.9 |
| 20260505213503 | 26 | 292 | 17.7 | 20.9 | 0.00 | 0.00 | 0.00 | 59 | 1001.6 |
| 20260505213006 | 27 | 315 | 17.7 | 20.9 | 0.00 | 0.00 | 0.00 | 57 | 1001.6 |
| 20260505212503 | 27 | 315 | 17.7 | 22.5 | 0.00 | 0.00 | 0.00 | 56 | 1001.2 |
| 20260505212005 | 27 | 337 | 20.9 | 27.4 | 0.00 | 0.00 | 0.00 | 54 | 1001.2 |
| 20260505211503 | 27 | 315 | 25.7 | 30.6 | 0.00 | 0.00 | 0.00 | 52 | 1001.2 |
| 20260505211006 | 27 | 315 | 20.9 | 25.7 | 0.00 | 0.00 | 0.00 | 50 | 1001.2 |
| 20260505210508 | 27 | 315 | 24.1 | 29.0 | 0.00 | 0.00 | 0.00 | 48 | 1001.6 |
| 20260505210006 | 28 | 292 | 22.5 | 29.0 | 0.00 | 0.00 | 0.00 | 46 | 1001.6 |
| 20260505205508 | 28 | 315 | 19.3 | 25.7 | 0.00 | 0.00 | 0.00 | 49 | 1001.6 |
| 20260505205006 | 28 | 292 | 20.9 | 30.6 | 0.00 | 0.00 | 0.00 | 44 | 1001.6 |
| 20260505204502 | 27 | 292 | 19.3 | 25.7 | 0.00 | 0.00 | 0.00 | 46 | 1001.6 |
| 20260505204005 | 27 | 337 | 22.5 | 29.0 | 0.00 | 0.00 | 0.00 | 46 | 1001.6 |
| 20260505203503 | 28 | 292 | 25.7 | 32.2 | 0.00 | 0.00 | 0.00 | 44 | 1000.9 |
| 20260505203005 | 28 | 315 | 25.7 | 30.6 | 0.00 | 0.00 | 0.00 | 47 | 1000.9 |
| 20260505202505 | 28 | 315 | 27.4 | 33.8 | 0.00 | 0.00 | 0.00 | 47 | 1001.2 |
| 20260505202008 | 28 | 292 | 33.8 | 43.5 | 0.00 | 0.00 | 0.00 | 47 | 1001.2 |
| 20260505201507 | 29 | 247 | 20.9 | 27.4 | 0.00 | 0.00 | 0.00 | 47 | 1001.6 |
| 20260505201004 | 29 | 247 | 19.3 | 27.4 | 0.00 | 0.00 | 0.00 | 46 | 1001.6 |
| 20260505200507 | 28 | 270 | 22.5 | 32.2 | 0.00 | 0.00 | 0.00 | 47 | 1001.2 |
| 20260505200004 | 29 | 247 | 22.5 | 30.6 | 0.00 | 0.00 | 0.00 | 47 | 1001.2 |
| 20260505195508 | 29 | 225 | 16.1 | 30.6 | 0.00 | 0.00 | 0.00 | 52 | 1001.2 |
| 20260505195005 | 29 | 202 | 19.3 | 24.1 | 0.00 | 0.00 | 0.00 | 56 | 1001.2 |
| 20260505194508 | 29 | 225 | 17.7 | 27.4 | 0.00 | 0.00 | 0.00 | 58 | 1001.6 |
| 20260505194004 | 28 | 247 | 24.1 | 30.6 | 0.00 | 0.00 | 0.00 | 62 | 1001.6 |
| 20260505193533 | 28 | 202 | 17.7 | 19.3 | 0.00 | 0.00 | 0.00 | 62 | 1001.6 |
| 20260505193003 | 28 | 202 | 17.7 | 20.9 | 0.00 | 0.00 | 0.00 | 62 | 1001.6 |
| 20260505192506 | 29 | 202 | 17.7 | 29.0 | 0.00 | 0.00 | 0.00 | 61 | 1001.2 |
| 20260505192009 | 29 | 202 | 17.7 | 24.1 | 0.00 | 0.00 | 0.00 | 63 | 1001.2 |
| 20260505191505 | 28 | 202 | 25.7 | 32.2 | 0.00 | 0.00 | 0.00 | 61 | 1001.6 |
| 20260505191002 | 29 | 202 | 25.7 | 30.6 | 0.00 | 0.00 | 0.00 | 61 | 1001.6 |
| 20260505190505 | 28 | 202 | 24.1 | 32.2 | 0.00 | 0.00 | 0.00 | 61 | 1001.6 |
| 20260505190008 | 28 | 202 | 25.7 | 32.2 | 0.00 | 0.00 | 0.00 | 61 | 1001.6 |
| 20260505185504 | 28 | 202 | 29.0 | 35.4 | 0.00 | 0.00 | 0.00 | 60 | 1001.6 |
| 20260505185006 | 28 | 202 | 25.7 | 30.6 | 0.00 | 0.00 | 0.00 | 59 | 1001.6 |
| 20260505184503 | 28 | 202 | 22.5 | 29.0 | 0.00 | 0.00 | 0.00 | 61 | 1001.6 |
| 20260505184005 | 28 | 202 | 25.7 | 30.6 | 0.00 | 0.00 | 0.00 | 58 | 1001.6 |
| 20260505183507 | 28 | 202 | 22.5 | 30.6 | 0.00 | 0.00 | 0.00 | 59 | 1001.6 |
| 20260505183005 | 28 | 202 | 25.7 | 32.2 | 0.00 | 0.00 | 0.00 | 59 | 1001.6 |
| 20260505182507 | 28 | 202 | 20.9 | 25.7 | 0.00 | 0.00 | 0.00 | 64 | 1001.6 |
| 20260505182004 | 28 | 180 | 19.3 | 27.4 | 0.00 | 0.00 | 0.00 | 65 | 1001.6 |
| 20260505181506 | 28 | 225 | 16.1 | 19.3 | 0.00 | 0.00 | 0.00 | 67 | 1001.9 |
| 20260505181004 | 28 | 202 | 19.3 | 22.5 | 0.00 | 0.00 | 0.00 | 67 | 1001.9 |
| 20260505180506 | 27 | 202 | 17.7 | 20.9 | 0.00 | 0.00 | 0.00 | 68 | 1002.2 |
| 20260505180003 | 27 | 202 | 19.3 | 27.4 | 0.00 | 0.00 | 0.00 | 69 | 1002.2 |
| 20260505175506 | 27 | 202 | 24.1 | 29.0 | 0.00 | 0.00 | 0.00 | 68 | 1002.2 |
| 20260505175003 | 27 | 202 | 24.1 | 30.6 | 0.00 | 0.00 | 0.00 | 70 | 1002.2 |
| 20260505174506 | 27 | 202 | 22.5 | 32.2 | 0.00 | 0.00 | 0.00 | 70 | 1002.2 |
| 20260505174003 | 26 | 202 | 25.7 | 30.6 | 0.00 | 0.00 | 0.00 | 71 | 1002.2 |
| 20260505173507 | 26 | 202 | 19.3 | 25.7 | 0.00 | 0.00 | 0.00 | 74 | 1002.6 |
| 20260505173029 | 26 | 180 | 20.9 | 27.4 | 0.00 | 0.00 | 0.00 | 74 | 1002.6 |
| 20260505172507 | 26 | 202 | 29.0 | 33.8 | 0.00 | 0.00 | 0.00 | 74 | 1002.2 |
| 20260505172004 | 26 | 180 | 29.0 | 37.0 | 0.00 | 0.00 | 0.00 | 74 | 1002.2 |
| 20260505171506 | 26 | 202 | 25.7 | 33.8 | 0.00 | 0.00 | 0.00 | 74 | 1002.9 |
| 20260505171004 | 26 | 180 | 25.7 | 30.6 | 0.00 | 0.00 | 0.00 | 76 | 1002.9 |
| 20260505170506 | 25 | 180 | 22.5 | 32.2 | 0.00 | 0.00 | 0.00 | 76 | 1002.9 |
| 20260505170003 | 25 | 180 | 22.5 | 30.6 | 0.00 | 0.00 | 0.00 | 79 | 1002.9 |
| 20260505165506 | 25 | 202 | 27.4 | 30.6 | 0.00 | 0.00 | 0.00 | 80 | 1003.3 |
| 20260505165003 | 25 | 202 | 19.3 | 24.1 | 0.00 | 0.00 | 0.00 | 82 | 1003.3 |
| 20260505164506 | 25 | 202 | 25.7 | 32.2 | 0.00 | 0.00 | 0.00 | 82 | 1003.3 |
| 20260505164003 | 24 | 202 | 25.7 | 30.6 | 0.00 | 0.00 | 0.00 | 83 | 1003.3 |
| 20260505163506 | 24 | 202 | 27.4 | 35.4 | 0.00 | 0.00 | 0.00 | 83 | 1003.3 |
| 20260505163003 | 24 | 180 | 30.6 | 38.6 | 0.00 | 0.00 | 0.00 | 83 | 1003.3 |
| 20260505162505 | 24 | 202 | 27.4 | 33.8 | 0.00 | 0.00 | 0.00 | 84 | 1003.3 |
| 20260505162008 | 24 | 202 | 24.1 | 27.4 | 0.00 | 0.00 | 0.00 | 85 | 1003.3 |
| 20260505161505 | 24 | 202 | 27.4 | 33.8 | 0.00 | 0.00 | 0.00 | 85 | 1003.3 |
| 20260505161008 | 24 | 180 | 25.7 | 32.2 | 0.00 | 0.00 | 0.00 | 85 | 1003.3 |
| 20260505160505 | 24 | 202 | 24.1 | 32.2 | 0.00 | 0.00 | 0.00 | 85 | 1002.9 |
| 20260505153007 | 24 | 202 | 30.6 | 38.6 | 0.00 | 0.00 | 0.00 | 83 | 1002.9 |
| 20260505152536 | 24 | 180 | 22.5 | 29.0 | 0.00 | 0.00 | 0.00 | 87 | 1002.9 |
| 20260505152006 | 23 | 202 | 27.4 | 33.8 | 0.00 | 0.00 | 0.00 | 85 | 1002.9 |
| 20260505151503 | 23 | 180 | 33.8 | 43.5 | 0.00 | 0.00 | 0.00 | 85 | 1002.9 |
| 20260505151007 | 23 | 180 | 29.0 | 33.8 | 0.00 | 0.00 | 0.00 | 86 | 1002.9 |
| 20260505150508 | 23 | 202 | 22.5 | 29.0 | 0.00 | 0.00 | 0.00 | 87 | 1003.3 |
| 20260505140503 | 22 | 180 | 25.7 | 30.6 | 0.00 | 0.00 | 0.00 | 96 | 1003.9 |